マクノート彗星

C/2006 Q1 ( McNaught )

English version
Home page
Total 6,336 html files since Dec. 4, 1995
Updated on June 30, 2008

---------------------------------------------------------------------

・ プロフィール

発見日 2006年8月20日
発見光度 17.8等
発見者 R. H. McNaught (Siding Spring Survey)

・ 写真集

・ 軌道要素

The following orbital elements are taken from MPC 61994:

Epoch 2008 June 23.0 TT = JDT 2454640.5
T 2008 July 3.8539 TT                                   MPC
q   2.763648             (2000.0)            P               Q
z  +0.000065       Peri.  344.3796      -0.9539006      -0.0880174
 +/-0.000001       Node   199.5466      -0.0840335      -0.8394593
e   0.999821       Incl.   59.0469      -0.2881180      +0.5362472
From 355 observations 2006 Aug. 20-2008 Feb. 12, mean residual 0".4.

・ 星図

・ 光度変化

        m1 = 4.8 + 5 logΔ + 10.0 log r

---------------------------------------------------------------------

軌道要素はMPCのEphemerides and Orbital Elementsに掲載されたものです。
星図は StellaNavigator Ver.2.0 for Windows (アストロアーツ 編著 / アスキー出版局刊) で作成したものです。
光度グラフはComet for Windowsで作成したものです。

---------------------------------------------------------------------

Copyright(C) 1995-2008 Seiichi Yoshida (comet@aerith.net). All rights reserved.